This is the latest recevied weather packets stored in our database for station/object IU1DOF-3. If no packets are shown the sender has not sent any weather packets the latest 10 day(s).
| Time | Temp. | Humidity | Pressure | Rain* | Wind** | Luminosity | Snow |
|---|---|---|---|---|---|---|---|
| 1777643696 | 13.89° C | 60% | 1024.3 hPa | 0 mm | - | - | - |
| 1777643073 | 13.33° C | 60% | 1024.3 hPa | 0 mm | - | - | - |
| 1777642464 | 13.33° C | 63% | 1024.6 hPa | 0 mm | - | - | - |
| 1777641841 | 13.33° C | 58% | 1024.7 hPa | 0 mm | - | - | - |
| 1777641217 | 13.89° C | 62% | 1024.9 hPa | 0 mm | - | - | - |
| 1777640593 | 13.33° C | 61% | 1024.9 hPa | 0 mm | - | - | - |
| 1777639984 | 13.33° C | 60% | 1024.9 hPa | 0 mm | - | - | - |
| 1777639362 | 12.78° C | 61% | 1025.2 hPa | 0 mm | - | - | - |
| 1777638752 | 12.78° C | 63% | 1025.2 hPa | 0 mm | - | - | - |
| 1777638129 | 12.78° C | 63% | 1025.2 hPa | 0 mm | - | - | - |
| 1777637520 | 12.78° C | 65% | 1025.1 hPa | 0 mm | - | - | - |
| 1777636912 | 12.78° C | 67% | 1025.1 hPa | 0 mm | - | - | - |
| 1777635681 | 12.22° C | 70% | 1025 hPa | 0 mm | - | - | - |
| 1777635056 | 12.22° C | 71% | 1025.3 hPa | 0 mm | - | - | - |
| 1777634443 | 11.67° C | 74% | 1025.1 hPa | 0 mm | - | - | - |
| 1777633824 | 11.67° C | 77% | 1025.2 hPa | 0 mm | - | - | - |
| 1777633202 | 11.67° C | 76% | 1025.1 hPa | 0 mm | - | - | - |
| 1777632581 | 11.67° C | 76% | 1025.1 hPa | 0 mm | - | - | - |
| 1777631968 | 11.67° C | 78% | 1025.2 hPa | 0 mm | - | - | - |
| 1777631344 | 11.67° C | 79% | 1025.2 hPa | 0 mm | - | - | - |
| 1777630736 | 11.11° C | 80% | 1025.2 hPa | 0 mm | - | - | - |
| 1777630122 | 11.67° C | 80% | 1024.9 hPa | 0 mm | - | - | - |
| 1777629505 | 11.67° C | 81% | 1025.1 hPa | 0 mm | - | - | - |
| 1777628880 | 11.11° C | 82% | 1025.3 hPa | 0 mm | - | - | - |
| 1777628261 | 11.11° C | 82% | 1025 hPa | 0 mm | - | - | - |
* Rain latest hour (hover to see other rain measurements)
** Current wind speed in m/s (hover to see current wind gust speed)